�������l�o���
Date,Time,MP-1(��Sv/h),MP-2(��Sv/h),MP-3(��Sv/h),MP-4(��Sv/h),MP-5(��Sv/h),MP-6(��Sv/h),MP-7(��Sv/h),MP-8(��Sv/h),����,����(m/s),���J
2024/06/30,00:00,0.501,0.769,0.487,0.954,0.703,0.317,0.554,0.512,��쐼,4.5,��
2024/06/30,00:10,0.501,0.768,0.488,0.954,0.704,0.317,0.554,0.511,��쐼,4.9,��
2024/06/30,00:20,0.501,0.769,0.487,0.954,0.703,0.318,0.553,0.510,��쐼,4.4,��
2024/06/30,00:30,0.501,0.767,0.488,0.956,0.704,0.319,0.554,0.511,��쐼,4.3,��
2024/06/30,00:40,0.501,0.768,0.487,0.955,0.703,0.317,0.554,0.511,��쐼,3.4,��
2024/06/30,00:50,0.499,0.766,0.487,0.954,0.703,0.316,0.555,0.510,��쐼,3.7,��
2024/06/30,01:00,0.499,0.769,0.487,0.952,0.704,0.318,0.554,0.512,��쐼,4.5,��
2024/06/30,01:10,0.498,0.769,0.487,0.955,0.702,0.317,0.555,0.510,��쐼,4.3,��
2024/06/30,01:20,0.500,0.766,0.487,0.953,0.702,0.317,0.556,0.512,��쐼,3.8,��
2024/06/30,01:30,0.501,0.768,0.488,0.952,0.703,0.318,0.554,0.510,��,2.8,��
2024/06/30,01:40,0.500,0.769,0.486,0.953,0.703,0.318,0.556,0.511,��쐼,2.9,��
2024/06/30,01:50,0.501,0.769,0.487,0.953,0.702,0.318,0.554,0.511,��쐼,3.3,��
2024/06/30,02:00,0.500,0.767,0.486,0.953,0.704,0.317,0.556,0.512,��쐼,4.5,��
2024/06/30,02:10,0.500,0.768,0.486,0.956,0.704,0.318,0.555,0.511,��쐼,3.9,��
2024/06/30,02:20,0.500,0.768,0.487,0.954,0.703,0.318,0.554,0.510,��쐼,3.0,��
2024/06/30,02:30,0.500,0.767,0.487,0.953,0.703,0.318,0.555,0.511,��,2.5,��
2024/06/30,02:40,0.498,0.767,0.487,0.953,0.702,0.318,0.555,0.511,��,2.3,��
2024/06/30,02:50,0.500,0.768,0.487,0.953,0.702,0.317,0.556,0.510,��쐼,3.4,��
2024/06/30,03:00,0.499,0.768,0.488,0.954,0.704,0.316,0.555,0.513,��쐼,2.6,��
2024/06/30,03:10,0.500,0.768,0.485,0.952,0.703,0.318,0.556,0.512,��,2.3,��
2024/06/30,03:20,0.500,0.768,0.486,0.954,0.704,0.318,0.557,0.511,��쐼,3.1,��
2024/06/30,03:30,0.500,0.768,0.485,0.953,0.701,0.319,0.557,0.512,��,3.0,��
2024/06/30,03:40,0.500,0.767,0.486,0.956,0.702,0.318,0.556,0.511,��,2.8,��
2024/06/30,03:50,0.500,0.767,0.488,0.954,0.704,0.318,0.557,0.511,��,2.5,��
2024/06/30,04:00,0.500,0.767,0.487,0.951,0.704,0.317,0.555,0.512,��쐼,1.5,��
2024/06/30,04:10,0.501,0.767,0.486,0.952,0.702,0.317,0.556,0.510,��쐼,1.4,��
2024/06/30,04:20,0.500,0.767,0.487,0.955,0.704,0.317,0.556,0.510,��쐼,2.3,��
2024/06/30,04:30,0.501,0.766,0.486,0.953,0.704,0.318,0.556,0.511,��쐼,3.4,��
2024/06/30,04:40,0.499,0.768,0.487,0.954,0.702,0.318,0.557,0.512,�쐼,3.4,��
2024/06/30,04:50,0.500,0.766,0.486,0.954,0.703,0.317,0.556,0.510,�쐼,1.7,��
2024/06/30,05:00,0.500,0.767,0.487,0.953,0.702,0.317,0.557,0.511,��쐼,2.0,��
2024/06/30,05:10,0.500,0.768,0.487,0.955,0.702,0.317,0.557,0.511,��쐼,2.3,��
2024/06/30,05:20,0.500,0.768,0.485,0.954,0.702,0.316,0.559,0.509,�쐼,2.5,��
2024/06/30,05:30,0.500,0.767,0.488,0.953,0.702,0.317,0.557,0.512,��,3.0,��
2024/06/30,05:40,0.501,0.769,0.486,0.954,0.702,0.317,0.557,0.510,��,3.0,��
2024/06/30,05:50,0.499,0.768,0.488,0.953,0.703,0.317,0.557,0.512,��쐼,2.8,��
2024/06/30,06:00,0.499,0.768,0.485,0.955,0.703,0.317,0.558,0.512,��,3.3,��
2024/06/30,06:10,0.499,0.768,0.484,0.953,0.703,0.317,0.557,0.512,��,2.9,��
2024/06/30,06:20,0.499,0.768,0.486,0.954,0.702,0.317,0.556,0.511,��,3.6,��
2024/06/30,06:30,0.499,0.766,0.487,0.954,0.701,0.316,0.557,0.511,��,3.6,��
2024/06/30,06:40,0.498,0.765,0.486,0.953,0.704,0.315,0.557,0.511,��쐼,3.6,��
2024/06/30,06:50,0.497,0.766,0.486,0.953,0.702,0.315,0.557,0.510,��,3.2,��
2024/06/30,07:00,0.498,0.769,0.487,0.953,0.701,0.317,0.557,0.511,��쐼,2.3,��
2024/06/30,07:10,0.500,0.768,0.488,0.955,0.702,0.316,0.557,0.511,��,2.0,��
2024/06/30,07:20,0.500,0.770,0.486,0.952,0.702,0.316,0.558,0.511,��,2.6,��
2024/06/30,07:30,0.500,0.768,0.486,0.953,0.700,0.317,0.557,0.511,��,2.5,��
2024/06/30,07:40,0.498,0.768,0.486,0.953,0.705,0.316,0.555,0.511,��,2.6,��
2024/06/30,07:50,0.498,0.769,0.487,0.953,0.702,0.316,0.556,0.511,��,2.8,��
2024/06/30,08:00,0.498,0.769,0.487,0.954,0.702,0.315,0.557,0.509,��,3.9,��
2024/06/30,08:10,0.498,0.768,0.488,0.952,0.705,0.316,0.554,0.510,��,5.1,��
2024/06/30,08:20,0.498,0.771,0.487,0.955,0.703,0.316,0.558,0.510,��,4.6,��
2024/06/30,08:30,0.499,0.769,0.488,0.954,0.704,0.317,0.556,0.509,��,5.0,��
2024/06/30,08:40,0.499,0.769,0.488,0.953,0.703,0.316,0.556,0.510,��,6.1,��
2024/06/30,08:50,0.498,0.769,0.486,0.956,0.703,0.317,0.555,0.508,��,6.4,��
2024/06/30,09:00,0.499,0.769,0.486,0.952,0.706,0.317,0.557,0.509,��,7.2,��
2024/06/30,09:10,0.499,0.772,0.486,0.953,0.705,0.316,0.555,0.511,��,7.4,��
2024/06/30,09:20,0.498,0.769,0.484,0.952,0.703,0.316,0.557,0.510,��쓌,8.3,��
2024/06/30,09:30,0.499,0.768,0.486,0.954,0.702,0.315,0.556,0.510,��쓌,10.2,��
2024/06/30,09:40,0.499,0.768,0.486,0.955,0.706,0.315,0.556,0.509,��쓌,11.9,��
2024/06/30,09:50,0.497,0.767,0.488,0.956,0.705,0.315,0.556,0.508,��쓌,12.2,��
2024/06/30,10:00,0.499,0.769,0.486,0.956,0.706,0.315,0.555,0.511,��쓌,11.8,��
2024/06/30,10:10,0.501,0.768,0.485,0.955,0.706,0.316,0.554,0.510,��쓌,10.5,��
2024/06/30,10:20,0.499,0.768,0.485,0.954,0.706,0.316,0.555,0.509,��쓌,11.3,��
2024/06/30,10:30,0.499,0.769,0.485,0.954,0.703,0.316,0.554,0.509,��쓌,11.0,��
2024/06/30,10:40,0.498,0.769,0.486,0.954,0.703,0.315,0.553,0.510,��쓌,10.6,��
2024/06/30,10:50,0.500,0.769,0.486,0.954,0.703,0.316,0.555,0.511,��쓌,12.1,��
2024/06/30,11:00,0.500,0.768,0.487,0.952,0.702,0.317,0.553,0.510,��쓌,11.6,��
2024/06/30,11:10,0.498,0.767,0.487,0.955,0.703,0.318,0.553,0.510,��쓌,11.8,��
2024/06/30,11:20,0.498,0.769,0.486,0.953,0.703,0.316,0.554,0.511,��쓌,12.1,��
2024/06/30,11:30,0.499,0.769,0.485,0.951,0.703,0.316,0.554,0.511,��쓌,11.3,��
2024/06/30,11:40,0.501,0.768,0.486,0.954,0.703,0.317,0.552,0.510,��,11.0,��
2024/06/30,11:50,0.500,0.768,0.487,0.952,0.706,0.317,0.554,0.511,��쓌,8.9,��
2024/06/30,12:00,0.501,0.769,0.486,0.954,0.705,0.316,0.552,0.510,��쓌,8.7,��
2024/06/30,12:10,0.499,0.769,0.486,0.953,0.706,0.316,0.552,0.510,��쓌,10.5,��
2024/06/30,12:20,0.500,0.767,0.486,0.954,0.708,0.317,0.552,0.509,��쓌,11.1,��
2024/06/30,12:30,0.500,0.770,0.487,0.955,0.707,0.317,0.552,0.511,��쓌,10.2,��
2024/06/30,12:40,0.500,0.770,0.487,0.957,0.708,0.316,0.554,0.510,��쓌,10.7,��
2024/06/30,12:50,0.500,0.768,0.488,0.955,0.706,0.315,0.552,0.511,��쓌,10.7,��
2024/06/30,13:00,0.500,0.771,0.488,0.952,0.706,0.317,0.552,0.511,��쓌,9.8,��
2024/06/30,13:10,0.499,0.768,0.488,0.954,0.708,0.316,0.553,0.511,��,7.8,��
2024/06/30,13:20,0.500,0.771,0.487,0.953,0.707,0.317,0.550,0.510,��,8.9,��
2024/06/30,13:30,0.503,0.772,0.489,0.957,0.707,0.318,0.551,0.510,��,8.7,��
2024/06/30,13:40,0.500,0.770,0.487,0.956,0.708,0.317,0.554,0.509,��,8.3,��
2024/06/30,13:50,0.500,0.771,0.488,0.956,0.708,0.317,0.553,0.510,��,8.7,��
2024/06/30,14:00,0.502,0.770,0.488,0.956,0.707,0.317,0.553,0.512,��,7.3,��
2024/06/30,14:10,0.502,0.770,0.489,0.956,0.706,0.317,0.555,0.511,��,6.6,��
2024/06/30,14:20,0.501,0.769,0.487,0.956,0.706,0.316,0.554,0.510,��,10.2,��
2024/06/30,14:30,0.501,0.770,0.488,0.957,0.707,0.318,0.555,0.512,��,10.5,��
2024/06/30,14:40,0.502,0.772,0.487,0.959,0.707,0.316,0.553,0.511,��,8.5,��
2024/06/30,14:50,0.501,0.773,0.490,0.956,0.708,0.318,0.554,0.511,��,7.9,��
2024/06/30,15:00,0.501,0.773,0.488,0.957,0.710,0.317,0.554,0.512,��,6.8,��
2024/06/30,15:10,0.500,0.775,0.488,0.959,0.707,0.317,0.555,0.514,��,8.7,��
2024/06/30,15:20,0.502,0.774,0.488,0.959,0.709,0.316,0.552,0.513,��,8.3,��
2024/06/30,15:30,0.501,0.774,0.489,0.957,0.706,0.317,0.552,0.512,��,9.0,��
2024/06/30,15:40,0.500,0.774,0.487,0.958,0.710,0.318,0.554,0.512,��,9.6,��
2024/06/30,15:50,0.500,0.772,0.489,0.958,0.709,0.316,0.556,0.513,��,8.5,�L
2024/06/30,16:00,0.502,0.774,0.490,0.958,0.707,0.316,0.554,0.513,��,6.5,�L
2024/06/30,16:10,0.501,0.773,0.490,0.958,0.709,0.317,0.554,0.513,��,5.8,�L
2024/06/30,16:20,0.501,0.772,0.489,0.959,0.706,0.317,0.553,0.512,��,5.7,�L
2024/06/30,16:30,0.502,0.775,0.490,0.959,0.708,0.317,0.554,0.513,��,5.2,��
2024/06/30,16:40,0.500,0.774,0.487,0.959,0.709,0.318,0.554,0.513,��,5.8,�L
2024/06/30,16:50,0.501,0.775,0.490,0.960,0.707,0.317,0.554,0.513,��,4.9,�L
2024/06/30,17:00,0.500,0.775,0.490,0.959,0.708,0.319,0.554,0.513,��,4.5,�L
2024/06/30,17:10,0.501,0.775,0.489,0.958,0.709,0.317,0.555,0.512,��,4.5,�L
2024/06/30,17:20,0.500,0.773,0.488,0.960,0.711,0.317,0.553,0.513,��,4.1,�L
2024/06/30,17:30,0.502,0.773,0.488,0.957,0.706,0.318,0.554,0.513,��,4.7,�L
2024/06/30,17:40,0.501,0.774,0.489,0.958,0.708,0.319,0.554,0.513,��,5.5,�L
2024/06/30,17:50,0.501,0.775,0.488,0.959,0.706,0.319,0.554,0.512,��,4.8,�L
2024/06/30,18:00,0.502,0.772,0.489,0.957,0.708,0.319,0.553,0.514,��,5.8,�L
2024/06/30,18:10,0.500,0.773,0.489,0.959,0.708,0.319,0.553,0.513,��,6.4,��
2024/06/30,18:20,0.501,0.772,0.490,0.958,0.707,0.318,0.554,0.513,��,6.5,��
2024/06/30,18:30,0.501,0.772,0.489,0.958,0.709,0.319,0.553,0.514,��,6.9,�L
2024/06/30,18:40,0.502,0.771,0.489,0.959,0.709,0.317,0.555,0.513,��,6.1,�L
2024/06/30,18:50,0.504,0.771,0.491,0.960,0.709,0.319,0.553,0.514,��,6.8,�L
2024/06/30,19:00,0.502,0.774,0.491,0.960,0.709,0.321,0.552,0.512,��,7.0,�L
2024/06/30,19:10,0.502,0.776,0.490,0.959,0.709,0.319,0.554,0.514,��,8.0,�L
2024/06/30,19:20,0.503,0.774,0.492,0.962,0.711,0.321,0.554,0.514,��,7.6,�L
2024/06/30,19:30,0.503,0.773,0.493,0.960,0.708,0.321,0.555,0.514,��,9.1,�L
2024/06/30,19:40,0.502,0.771,0.492,0.961,0.710,0.319,0.555,0.515,��,8.8,�L
2024/06/30,19:50,0.502,0.771,0.490,0.961,0.711,0.319,0.554,0.515,��,7.2,��
2024/06/30,20:00,0.501,0.769,0.489,0.961,0.707,0.319,0.555,0.514,��,7.1,�L
2024/06/30,20:10,0.502,0.769,0.490,0.960,0.708,0.320,0.555,0.513,��,7.2,��
2024/06/30,20:20,0.500,0.771,0.490,0.959,0.706,0.318,0.554,0.514,��,8.1,��
2024/06/30,20:30,0.501,0.771,0.489,0.960,0.707,0.318,0.553,0.514,��,6.9,�L
2024/06/30,20:40,0.502,0.772,0.490,0.959,0.708,0.318,0.555,0.513,��,8.8,��
2024/06/30,20:50,0.500,0.769,0.489,0.959,0.707,0.318,0.555,0.512,��쐼,9.0,��
2024/06/30,21:00,0.500,0.767,0.487,0.959,0.708,0.318,0.555,0.513,��쐼,9.2,��
2024/06/30,21:10,0.499,0.769,0.488,0.959,0.706,0.317,0.554,0.513,��쐼,8.1,��
2024/06/30,21:20,0.499,0.767,0.488,0.960,0.706,0.319,0.554,0.512,��쐼,9.1,��
2024/06/30,21:30,0.500,0.767,0.487,0.959,0.708,0.318,0.554,0.514,��쐼,10.3,��
2024/06/30,21:40,0.500,0.770,0.487,0.960,0.706,0.319,0.556,0.513,�쐼,8.7,��
2024/06/30,21:50,0.499,0.769,0.488,0.959,0.707,0.317,0.555,0.513,��쐼,7.5,��
2024/06/30,22:00,0.500,0.768,0.487,0.959,0.709,0.318,0.555,0.513,��쐼,8.8,��
2024/06/30,22:10,0.500,0.769,0.486,0.960,0.706,0.318,0.555,0.514,�쐼,8.0,��
2024/06/30,22:20,0.499,0.769,0.487,0.959,0.709,0.317,0.556,0.514,�쐼,9.8,��
2024/06/30,22:30,0.499,0.768,0.489,0.957,0.706,0.317,0.555,0.516,�쐼,10.2,��
2024/06/30,22:40,0.501,0.767,0.487,0.959,0.706,0.318,0.555,0.513,�쐼,8.1,��
2024/06/30,22:50,0.500,0.769,0.488,0.960,0.707,0.318,0.555,0.513,�쐼,7.3,��
2024/06/30,23:00,0.500,0.770,0.486,0.960,0.707,0.317,0.555,0.514,��쐼,6.4,��
2024/06/30,23:10,0.499,0.769,0.488,0.957,0.709,0.316,0.557,0.513,��쐼,4.9,��
2024/06/30,23:20,0.500,0.769,0.489,0.958,0.708,0.318,0.554,0.515,��,5.3,��
2024/06/30,23:30,0.500,0.769,0.488,0.958,0.708,0.319,0.555,0.514,��,6.4,��
2024/06/30,23:40,0.502,0.770,0.487,0.959,0.709,0.317,0.555,0.514,��,7.2,��
2024/06/30,23:50,0.499,0.769,0.487,0.960,0.706,0.317,0.554,0.513,��,7.0,��
